,,,PA_Meas_PMT16A,,PR_Meas_QMR101_102,,RH_Meas_QMH101,,SR_Meas_QMS101,,TA_Meas_QMH101,,GenWind,,GenWind,
date,time,status,PA,status,PR,status,RH,status,SR,status,TA,status,DirAvg,status,SpdAvg,
2008-07-20, 06:41:04,VALID,1004.14,VALID,0,VALID,95.8111,VALID,42.4376,VALID,24.6009,VALID,76,VALID,0.470313,
2008-07-20, 06:42:04,VALID,1004.14,VALID,0,VALID,95.7882,VALID,42.4376,VALID,24.599,VALID,76,VALID,0.223828,
2008-07-20, 06:43:04,VALID,1004.11,VALID,0,VALID,95.7348,VALID,42.337,VALID,24.638,VALID,76,VALID,0.305469,
2008-07-20, 06:44:04,VALID,1004.15,VALID,0,VALID,95.689,VALID,42.337,VALID,24.6788,VALID,76,VALID,0.428125,
2008-07-20, 06:45:04,VALID,1004.2,VALID,0,VALID,95.6585,VALID,42.4376,VALID,24.6964,VALID,84,VALID,0.552344,
2008-07-20, 06:46:04,VALID,1004.21,VALID,0,VALID,95.567,VALID,42.9404,VALID,24.7159,VALID,139,VALID,0.837891,
2008-07-20, 06:47:04,VALID,1004.22,VALID,0,VALID,95.5212,VALID,44.1471,VALID,24.7956,VALID,139,VALID,0.563672,
2008-07-20, 06:48:04,VALID,1004.23,VALID,0,VALID,95.3534,VALID,45.1528,VALID,24.7548,VALID,143,VALID,1.09961,
2008-07-20, 06:49:04,VALID,1004.23,VALID,0,VALID,95.2466,VALID,46.9629,VALID,24.8132,VALID,176,VALID,0.995313,
2008-07-20, 06:50:04,VALID,1004.24,VALID,0,VALID,95.1474,VALID,49.0747,VALID,24.9125,VALID,116,VALID,0.723828,
2008-07-20, 06:51:04,VALID,1004.26,VALID,0,VALID,95.0711,VALID,49.6781,VALID,24.8911,VALID,114,VALID,0.876172,
2008-07-20, 06:52:04,VALID,1004.25,VALID,0,VALID,94.9948,VALID,50.7843,VALID,24.9514,VALID,134,VALID,0.671484,
2008-07-20, 06:53:04,VALID,1004.23,VALID,0,VALID,94.766,VALID,52.8961,VALID,24.9319,VALID,128,VALID,1.11875,
2008-07-20, 06:54:04,VALID,1004.24,VALID,0,VALID,94.7049,VALID,53.8012,VALID,24.9319,VALID,131,VALID,0.821094,
2008-07-20, 06:55:04,VALID,1004.25,VALID,0,VALID,94.5523,VALID,56.1141,VALID,24.9125,VALID,92,VALID,0.99375,
2008-07-20, 06:56:04,VALID,1004.27,VALID,0,VALID,94.5981,VALID,59.835,VALID,24.93,VALID,90,VALID,0.342187,
2008-07-20, 06:57:04,VALID,1004.24,VALID,0,VALID,94.5676,VALID,65.7682,VALID,24.9319,VALID,90,VALID,0.539063,
2008-07-20, 06:58:04,VALID,1004.22,VALID,0,VALID,94.5447,VALID,70.7963,VALID,24.9514,VALID,89,VALID,0.341406,
2008-07-20, 06:59:04,VALID,1004.2,VALID,0,VALID,94.5523,VALID,76.8301,VALID,24.9514,VALID,89,VALID,0.0078125,
2008-07-20, 07:00:04,VALID,1004.17,VALID,0.5,VALID,94.5829,VALID,86.283,VALID,24.9709,VALID,33,VALID,0.548828,
2008-07-20, 07:01:04,VALID,1004.18,VALID,0,VALID,94.7354,VALID,99.9596,VALID,25.0098,VALID,11,VALID,0.644922,
2008-07-20, 07:02:04,VALID,1004.17,VALID,0,VALID,94.766,VALID,105.189,VALID,25.0079,VALID,14,VALID,0.792188,
2008-07-20, 07:03:04,VALID,1004.18,VALID,0,VALID,94.5218,VALID,112.631,VALID,25.0312,VALID,40,VALID,0.784766,
2008-07-20, 07:04:04,VALID,1004.2,VALID,0,VALID,94.5295,VALID,122.988,VALID,25.0098,VALID,35,VALID,0.646094,
2008-07-20, 07:05:04,VALID,1004.22,VALID,0,VALID,94.5142,VALID,130.128,VALID,25.0293,VALID,28,VALID,0.781641,
2008-07-20, 07:06:04,VALID,1004.24,VALID,0.5,VALID,94.6057,VALID,133.95,VALID,25.0896,VALID,53,VALID,0.699219,
2008-07-20, 07:07:04,VALID,1004.23,VALID,0,VALID,94.6134,VALID,153.459,VALID,25.1267,VALID,42,VALID,0.365625,
2008-07-20, 07:08:04,VALID,1004.21,VALID,0,VALID,94.5981,VALID,154.465,VALID,25.1656,VALID,21,VALID,0.555469,
2008-07-20, 07:09:04,VALID,1004.22,VALID,0,VALID,94.4303,VALID,168.242,VALID,25.2027,VALID,15,VALID,0.669531,
2008-07-20, 07:10:04,VALID,1004.24,VALID,0,VALID,94.5523,VALID,262.168,VALID,25.2825,VALID,18,VALID,0.120703,
2008-07-20, 07:11:04,VALID,1004.24,VALID,0,VALID,94.6439,VALID,308.326,VALID,25.3974,VALID,31,VALID,0.264453,
2008-07-20, 07:12:04,VALID,1004.24,VALID,0,VALID,94.4303,VALID,328.137,VALID,25.4967,VALID,67,VALID,0.399219,
2008-07-20, 07:13:04,VALID,1004.26,VALID,0,VALID,94.415,VALID,334.774,VALID,25.6506,VALID,68,VALID,0.597266,
2008-07-20, 07:14:04,VALID,1004.29,VALID,0,VALID,93.8429,VALID,344.529,VALID,25.748,VALID,66,VALID,0.572656,
2008-07-20, 07:15:04,VALID,1004.31,VALID,0,VALID,93.202,VALID,351.367,VALID,25.8863,VALID,41,VALID,0.469531,
2008-07-20, 07:16:04,VALID,1004.33,VALID,0,VALID,92.5841,VALID,358.507,VALID,26.0206,VALID,55,VALID,0.423828,
2008-07-20, 07:17:04,VALID,1004.35,VALID,0,VALID,92.5002,VALID,344.629,VALID,26.2369,VALID,74,VALID,0.393359,
2008-07-20, 07:18:04,VALID,1004.36,VALID,0,VALID,91.8899,VALID,357.2,VALID,26.4122,VALID,53,VALID,0.221094,
2008-07-20, 07:19:04,VALID,1004.4,VALID,0,VALID,90.3031,VALID,389.179,VALID,26.5096,VALID,96,VALID,0.808594,
2008-07-20, 07:20:04,VALID,1004.38,VALID,0,VALID,87.8847,VALID,399.436,VALID,26.5291,VALID,74,VALID,1.04336,
2008-07-20, 07:21:04,VALID,1004.41,VALID,0,VALID,87.3278,VALID,372.887,VALID,26.5876,VALID,62,VALID,1.30586,
2008-07-20, 07:22:04,VALID,1004.4,VALID,0,VALID,87.8466,VALID,398.531,VALID,26.6655,VALID,84,VALID,0.962891,
2008-07-20, 07:23:04,VALID,1004.41,VALID,0,VALID,88.7162,VALID,339.601,VALID,26.8193,VALID,69,VALID,0.402734,
2008-07-20, 07:24:04,VALID,1004.43,VALID,0,VALID,85.8783,VALID,388.977,VALID,26.8408,VALID,110,VALID,0.823828,
2008-07-20, 07:25:04,VALID,1004.44,VALID,0,VALID,84.8408,VALID,389.179,VALID,26.8603,VALID,123,VALID,0.582422,
2008-07-20, 07:26:04,VALID,1004.46,VALID,0,VALID,85.7639,VALID,395.916,VALID,26.9403,VALID,151,VALID,1.56758,
2008-07-20, 07:27:04,VALID,1004.48,VALID,0,VALID,84.3296,VALID,408.688,VALID,26.8624,VALID,104,VALID,1.80313,
2008-07-20, 07:28:04,VALID,1004.51,VALID,0,VALID,86.2445,VALID,419.85,VALID,26.9013,VALID,92,VALID,0.805469,
2008-07-20, 07:29:04,VALID,1004.51,VALID,0,VALID,84.8942,VALID,425.08,VALID,26.9403,VALID,97,VALID,1.16133,
2008-07-20, 07:30:04,VALID,1004.51,VALID,0,VALID,86.214,VALID,426.286,VALID,26.9578,VALID,123,VALID,0.349219,
2008-07-20, 07:31:04,VALID,1004.5,VALID,0,VALID,85.4511,VALID,425.18,VALID,27.1331,VALID,76,VALID,0.428906,
2008-07-20, 07:32:04,VALID,1004.51,VALID,0,VALID,85.3214,VALID,423.571,VALID,27.3085,VALID,152,VALID,1.125,
2008-07-20, 07:33:04,VALID,1004.52,VALID,0,VALID,83.1853,VALID,427.191,VALID,27.2695,VALID,137,VALID,1.15273,
2008-07-20, 07:34:04,VALID,1004.53,VALID,0,VALID,83.4523,VALID,427.694,VALID,27.25,VALID,147,VALID,1.36875,
2008-07-20, 07:35:04,VALID,1004.54,VALID,0,VALID,82.5369,VALID,421.962,VALID,27.2111,VALID,141,VALID,1.35312,
2008-07-20, 07:36:04,VALID,1004.52,VALID,0,VALID,83.7956,VALID,420.856,VALID,27.1916,VALID,140,VALID,1.27422,
2008-07-20, 07:37:04,VALID,1004.52,VALID,0,VALID,85.329,VALID,412.006,VALID,27.2695,VALID,128,VALID,0.939844,
2008-07-20, 07:38:04,VALID,1004.52,VALID,0,VALID,81.6672,VALID,404.364,VALID,27.25,VALID,124,VALID,1.23242,
2008-07-20, 07:39:04,VALID,1004.52,VALID,0,VALID,82.5597,VALID,396.117,VALID,27.2521,VALID,109,VALID,1.63789,
2008-07-20, 07:40:04,VALID,1004.49,VALID,0,VALID,82.247,VALID,389.179,VALID,27.2695,VALID,120,VALID,0.491406,
2008-07-20, 07:41:04,VALID,1004.51,VALID,0,VALID,83.6659,VALID,383.748,VALID,27.367,VALID,62,VALID,0.442187,
2008-07-20, 07:42:04,VALID,1004.5,VALID,0,VALID,82.3538,VALID,378.217,VALID,27.4665,VALID,113,VALID,1.17266,
2008-07-20, 07:43:04,VALID,1004.49,VALID,0,VALID,82.041,VALID,372.485,VALID,27.4491,VALID,102,VALID,0.85,
2008-07-20, 07:44:04,VALID,1004.49,VALID,0,VALID,80.9958,VALID,370.574,VALID,27.4101,VALID,141,VALID,1.81797,
2008-07-20, 07:45:04,VALID,1004.51,VALID,0,VALID,82.4606,VALID,371.278,VALID,27.3906,VALID,114,VALID,1.43672,
2008-07-20, 07:46:04,VALID,1004.54,VALID,0,VALID,82.2393,VALID,256.838,VALID,27.4101,VALID,141,VALID,0.948047,
2008-07-20, 07:47:04,VALID,1004.55,VALID,0,VALID,81.7587,VALID,211.283,VALID,27.369,VALID,165,VALID,1.17656,
2008-07-20, 07:48:04,VALID,1004.56,VALID,0,VALID,80.8814,VALID,278.861,VALID,27.3106,VALID,132,VALID,1.37461,
2008-07-20, 07:49:04,VALID,1004.6,VALID,0,VALID,81.0874,VALID,329.645,VALID,27.2521,VALID,127,VALID,0.733594,
2008-07-20, 07:50:04,VALID,1004.6,VALID,0,VALID,82.4224,VALID,367.457,VALID,27.2716,VALID,101,VALID,0.747266,
2008-07-20, 07:51:04,VALID,1004.63,VALID,0,VALID,81.8579,VALID,371.882,VALID,27.3885,VALID,135,VALID,1.11484,
2008-07-20, 07:52:04,VALID,1004.65,VALID,0,VALID,82.5521,VALID,373.692,VALID,27.4254,VALID,153,VALID,0.602344,
2008-07-20, 07:53:04,VALID,1004.62,VALID,0,VALID,83.0404,VALID,373.29,VALID,27.5034,VALID,116,VALID,0.222266,
2008-07-20, 07:54:04,VALID,1004.67,VALID,0,VALID,80.9653,VALID,226.669,VALID,27.6788,VALID,118,VALID,0.821875,
2008-07-20, 07:55:04,VALID,1004.68,VALID,0,VALID,80.7898,VALID,368.865,VALID,27.6614,VALID,132,VALID,0.935156,
2008-07-20, 07:56:04,VALID,1004.65,VALID,0,VALID,82.3614,VALID,378.821,VALID,27.6788,VALID,118,VALID,0.596875,
2008-07-20, 07:57:04,VALID,1004.66,VALID,0,VALID,81.8731,VALID,376.307,VALID,27.7394,VALID,160,VALID,0.391797,
2008-07-20, 07:58:04,VALID,1004.64,VALID,0,VALID,82.0639,VALID,379.122,VALID,27.8368,VALID,105,VALID,0.443359,
2008-07-20, 07:59:04,VALID,1004.66,VALID,0,VALID,80.0041,VALID,386.665,VALID,27.8932,VALID,101,VALID,0.515625,
2008-07-20, 08:00:04,VALID,1004.69,VALID,0,VALID,78.4783,VALID,392.899,VALID,27.8737,VALID,72,VALID,0.536719,
2008-07-20, 08:01:04,VALID,1004.7,VALID,0,VALID,79.2412,VALID,394.408,VALID,28.0122,VALID,24,VALID,0.429688,
2008-07-20, 08:02:04,VALID,1004.72,VALID,0,VALID,79.3175,VALID,393.905,VALID,28.2462,VALID,22,VALID,0.30625,
2008-07-20, 08:03:04,VALID,1004.72,VALID,0,VALID,78.1274,VALID,398.933,VALID,28.4216,VALID,66,VALID,0.462891,
2008-07-20, 08:04:04,VALID,1004.74,VALID,0,VALID,76.861,VALID,400.14,VALID,28.4606,VALID,65,VALID,0.960938,
2008-07-20, 08:05:04,VALID,1004.77,VALID,0,VALID,76.6016,VALID,406.174,VALID,28.4996,VALID,76,VALID,0.519531,
2008-07-20, 08:06:04,VALID,1004.82,VALID,0,VALID,77.4408,VALID,411.101,VALID,28.5971,VALID,79,VALID,0.560156,
2008-07-20, 08:07:04,VALID,1004.85,VALID,0,VALID,75.7929,VALID,418.945,VALID,28.5602,VALID,113,VALID,0.944531,
2008-07-20, 08:08:04,VALID,1004.87,VALID,0,VALID,76.9754,VALID,427.996,VALID,28.4801,VALID,139,VALID,1.19492,
2008-07-20, 08:09:04,VALID,1004.89,VALID,0,VALID,78.6232,VALID,434.834,VALID,28.3631,VALID,130,VALID,1.30625,
2008-07-20, 08:10:04,VALID,1004.91,VALID,0,VALID,76.1896,VALID,415.023,VALID,28.2635,VALID,123,VALID,1.0125,
2008-07-20, 08:11:04,VALID,1004.92,VALID,0,VALID,78.2494,VALID,463.595,VALID,28.244,VALID,133,VALID,0.726172,
2008-07-20, 08:12:04,VALID,1004.95,VALID,0,VALID,77.5399,VALID,471.841,VALID,28.283,VALID,101,VALID,0.869141,
2008-07-20, 08:13:04,VALID,1004.95,VALID,0,VALID,77.9595,VALID,481.998,VALID,28.3826,VALID,152,VALID,1.0543,
2008-07-20, 08:14:04,VALID,1004.95,VALID,0,VALID,77.1051,VALID,479.585,VALID,28.3805,VALID,162,VALID,1.18633,
2008-07-20, 08:15:04,VALID,1004.96,VALID,0,VALID,78.3181,VALID,480.993,VALID,28.3631,VALID,161,VALID,0.908594,
2008-07-20, 08:16:04,VALID,1004.95,VALID,0,VALID,78.8674,VALID,481.998,VALID,28.3631,VALID,159,VALID,0.788672,
2008-07-20, 08:17:04,VALID,1004.96,VALID,0,VALID,78.0282,VALID,480.691,VALID,28.3805,VALID,147,VALID,0.321875,
2008-07-20, 08:18:04,VALID,1005.02,VALID,0,VALID,77.8222,VALID,391.391,VALID,28.3805,VALID,126,VALID,0.792188,
2008-07-20, 08:19:04,VALID,1005.02,VALID,0,VALID,78.402,VALID,492.356,VALID,28.4194,VALID,68,VALID,0.360156,
2008-07-20, 08:20:04,VALID,1005,VALID,0,VALID,77.7001,VALID,505.63,VALID,28.5169,VALID,120,VALID,0.361328,
2008-07-20, 08:21:04,VALID,1005,VALID,0,VALID,78.5698,VALID,509.754,VALID,28.6729,VALID,154,VALID,0.222266,
2008-07-20, 08:22:04,VALID,1005,VALID,0,VALID,76.5863,VALID,511.564,VALID,28.8115,VALID,187,VALID,0.464453,
2008-07-20, 08:23:04,VALID,1004.96,VALID,0,VALID,77.1661,VALID,511.664,VALID,28.8527,VALID,173,VALID,0.278516,
2008-07-20, 08:24:04,VALID,1004.99,VALID,0,VALID,76.7236,VALID,508.849,VALID,28.7119,VALID,97,VALID,1.06328,
2008-07-20, 08:25:04,VALID,1004.96,VALID,0,VALID,73.8018,VALID,509.05,VALID,28.7509,VALID,83,VALID,0.982422,
2008-07-20, 08:26:04,VALID,1004.99,VALID,0,VALID,73.4966,VALID,514.882,VALID,28.7704,VALID,122,VALID,0.303906,
2008-07-20, 08:27:04,VALID,1004.98,VALID,0,VALID,72.8863,VALID,533.185,VALID,28.9458,VALID,119,VALID,0.387891,
2008-07-20, 08:28:04,VALID,1004.99,VALID,0,VALID,74.1298,VALID,544.247,VALID,29.0845,VALID,127,VALID,0.306641,
2008-07-20, 08:29:04,VALID,1005,VALID,0,VALID,73.3746,VALID,529.967,VALID,29.1603,VALID,217,VALID,0.364062,
2008-07-20, 08:30:04,VALID,1005.03,VALID,0,VALID,74.9461,VALID,552.191,VALID,29.1018,VALID,80,VALID,0.797656,
2008-07-20, 08:31:04,VALID,1005.05,VALID,0,VALID,75.1902,VALID,561.141,VALID,29.1993,VALID,86,VALID,1.24102,
2008-07-20, 08:32:04,VALID,1005.05,VALID,0,VALID,75.9684,VALID,541.431,VALID,29.1798,VALID,101,VALID,0.795313,
2008-07-20, 08:33:04,VALID,1005.06,VALID,0,VALID,72.6498,VALID,243.765,VALID,28.9068,VALID,129,VALID,2.05742,
2008-07-20, 08:34:04,VALID,1005.08,VALID,0,VALID,74.0917,VALID,566.169,VALID,28.675,VALID,98,VALID,1.03555,
2008-07-20, 08:35:04,VALID,1005.09,VALID,0,VALID,75.4878,VALID,293.443,VALID,28.7335,VALID,39,VALID,0.813672,
2008-07-20, 08:36:04,VALID,1005.1,VALID,0,VALID,73.9696,VALID,295.253,VALID,28.8093,VALID,9,VALID,0.846875,
2008-07-20, 08:37:04,VALID,1005.1,VALID,0,VALID,73.4814,VALID,612.931,VALID,28.8288,VALID,100,VALID,1.09492,
2008-07-20, 08:38:04,VALID,1005.08,VALID,0,VALID,73.0236,VALID,423.973,VALID,28.909,VALID,108,VALID,0.994531,
2008-07-20, 08:39:04,VALID,1005.07,VALID,0,VALID,72.955,VALID,586.483,VALID,28.948,VALID,123,VALID,1.21719,
2008-07-20, 08:40:04,VALID,1005.04,VALID,0,VALID,72.7185,VALID,637.77,VALID,28.9458,VALID,100,VALID,1.91836,
2008-07-20, 08:41:04,VALID,1005.08,VALID,0,VALID,71.269,VALID,354.987,VALID,28.9458,VALID,81,VALID,1.14766,
2008-07-20, 08:42:04,VALID,1005.09,VALID,0,VALID,72.1921,VALID,484.412,VALID,28.9848,VALID,76,VALID,0.86875,
2008-07-20, 08:43:04,VALID,1005.11,VALID,0,VALID,73.1381,VALID,618.764,VALID,29.0628,VALID,103,VALID,1.0207,
2008-07-20, 08:44:04,VALID,1005.13,VALID,0,VALID,69.2779,VALID,406.878,VALID,29.1213,VALID,116,VALID,0.971875,
2008-07-20, 08:45:04,VALID,1005.14,VALID,0,VALID,70.0636,VALID,216.613,VALID,29.1235,VALID,116,VALID,1.19023,
2008-07-20, 08:46:04,VALID,1005.13,VALID,0,VALID,70.6968,VALID,271.319,VALID,28.9263,VALID,102,VALID,0.938672,
2008-07-20, 08:47:04,VALID,1005.16,VALID,0,VALID,71.8717,VALID,481.898,VALID,28.8873,VALID,71,VALID,0.3375,
2008-07-20, 08:48:04,VALID,1005.13,VALID,0,VALID,71.7954,VALID,343.422,VALID,29.0238,VALID,78,VALID,0.411328,
2008-07-20, 08:49:04,VALID,1005.14,VALID,0,VALID,71.5665,VALID,319.991,VALID,29.0043,VALID,114,VALID,0.555469,
2008-07-20, 08:50:04,VALID,1005.13,VALID,0,VALID,71.6047,VALID,696.901,VALID,28.9263,VALID,74,VALID,0.981641,
2008-07-20, 08:51:04,VALID,1005.12,VALID,0,VALID,73.3364,VALID,702.332,VALID,28.9675,VALID,57,VALID,0.694922,
2008-07-20, 08:52:04,VALID,1005.16,VALID,0,VALID,72.8558,VALID,601.165,VALID,29.1018,VALID,36,VALID,1.07891,
2008-07-20, 08:53:04,VALID,1005.15,VALID,0,VALID,70.7655,VALID,441.17,VALID,29.2578,VALID,64,VALID,0.132813,
2008-07-20, 08:54:04,VALID,1005.13,VALID,0,VALID,68.8812,VALID,711.282,VALID,29.3163,VALID,179,VALID,1.19922,
2008-07-20, 08:55:04,VALID,1005.15,VALID,0,VALID,69.8348,VALID,717.315,VALID,29.2188,VALID,69,VALID,0.522266,
2008-07-20, 08:56:04,VALID,1005.17,VALID,0,VALID,73.161,VALID,729.785,VALID,29.26,VALID,170,VALID,0.505859,
2008-07-20, 08:57:04,VALID,1005.17,VALID,0,VALID,73.0542,VALID,400.643,VALID,29.2773,VALID,143,VALID,0.172656,
2008-07-20, 08:58:04,VALID,1005.16,VALID,0,VALID,74.5265,VALID,746.278,VALID,29.221,VALID,171,VALID,1.28945,
2008-07-20, 08:59:04,VALID,1005.16,VALID,0,VALID,71.9327,VALID,287.912,VALID,29.1018,VALID,128,VALID,1.13242,
2008-07-20, 09:00:04,VALID,1005.24,VALID,0,VALID,71.0173,VALID,305.51,VALID,29.065,VALID,107,VALID,0.975391,
2008-07-20, 09:01:04,VALID,1005.2,VALID,0,VALID,71.3911,VALID,589.299,VALID,28.9285,VALID,121,VALID,1.16211,
2008-07-20, 09:02:04,VALID,1005.24,VALID,0,VALID,74.6105,VALID,609.21,VALID,28.7898,VALID,151,VALID,1.71836,
2008-07-20, 09:03:04,VALID,1005.21,VALID,0,VALID,74.1603,VALID,435.94,VALID,28.6556,VALID,131,VALID,1.07383,
2008-07-20, 09:04:04,VALID,1005.19,VALID,0,VALID,75.3123,VALID,751.507,VALID,28.6361,VALID,348,VALID,0.882031,
2008-07-20, 09:05:04,VALID,1005.19,VALID,0,VALID,77.4408,VALID,733.506,VALID,28.831,VALID,343,VALID,0.297266,
2008-07-20, 09:06:04,VALID,1005.19,VALID,0,VALID,76.7313,VALID,733.908,VALID,29.0845,VALID,101,VALID,0.827344,
2008-07-20, 09:07:04,VALID,1005.18,VALID,0,VALID,73.9315,VALID,738.937,VALID,29.2188,VALID,108,VALID,0.76875,
2008-07-20, 09:08:04,VALID,1005.2,VALID,0,VALID,76.7389,VALID,759.552,VALID,29.4745,VALID,351,VALID,0.470313,
2008-07-20, 09:09:04,VALID,1005.2,VALID,0,VALID,74.2595,VALID,789.52,VALID,29.455,VALID,157,VALID,1.96563,
2008-07-20, 09:10:04,VALID,1005.25,VALID,0,VALID,73.7865,VALID,812.85,VALID,29.3965,VALID,89,VALID,0.758203,
2008-07-20, 09:11:04,VALID,1005.26,VALID,0,VALID,69.6746,VALID,821.8,VALID,29.494,VALID,82,VALID,0.909375,
2008-07-20, 09:12:04,VALID,1005.27,VALID,0,VALID,70.8036,VALID,526.95,VALID,29.6695,VALID,29,VALID,0.350391,
2008-07-20, 09:13:04,VALID,1005.29,VALID,0,VALID,72.2302,VALID,666.933,VALID,29.7865,VALID,181,VALID,0.998438,
2008-07-20, 09:14:04,VALID,1005.28,VALID,0,VALID,73.4509,VALID,844.427,VALID,29.7085,VALID,171,VALID,1.47148,
2008-07-20, 09:15:04,VALID,1005.26,VALID,0,VALID,72.6041,VALID,824.516,VALID,29.7085,VALID,171,VALID,1.91797,
2008-07-20, 09:16:04,VALID,1005.27,VALID,0,VALID,74.3129,VALID,852.673,VALID,29.5135,VALID,181,VALID,1.41484,
2008-07-20, 09:17:04,VALID,1005.28,VALID,0,VALID,75.1292,VALID,858.707,VALID,29.377,VALID,173,VALID,1.92344,
2008-07-20, 09:18:04,VALID,1005.27,VALID,0,VALID,75.5488,VALID,330.249,VALID,29.26,VALID,160,VALID,0.903906,
2008-07-20, 09:19:04,VALID,1005.31,VALID,0,VALID,77.4408,VALID,277.654,VALID,29.2015,VALID,81,VALID,0.894141,
2008-07-20, 09:20:04,VALID,1005.29,VALID,0,VALID,71.948,VALID,258.145,VALID,29.104,VALID,45,VALID,1.45781,
2008-07-20, 09:21:04,VALID,1005.34,VALID,0,VALID,74.0612,VALID,239.239,VALID,29.065,VALID,350,VALID,1.11953,
2008-07-20, 09:22:04,VALID,1005.38,VALID,0,VALID,71.6047,VALID,247.485,VALID,29.0845,VALID,20,VALID,0.754297,
2008-07-20, 09:23:04,VALID,1005.37,VALID,0,VALID,70.8647,VALID,273.933,VALID,29.0477,VALID,100,VALID,1.01602,
2008-07-20, 09:24:04,VALID,1005.37,VALID,0,VALID,72.6422,VALID,734.813,VALID,29.0087,VALID,90,VALID,0.676562,
2008-07-20, 09:25:04,VALID,1005.38,VALID,0,VALID,73.7713,VALID,229.786,VALID,28.9653,VALID,106,VALID,0.647266,
2008-07-20, 09:26:04,VALID,1005.39,VALID,0,VALID,74.2443,VALID,206.456,VALID,29.0043,VALID,116,VALID,1.20664,
2008-07-20, 09:27:04,VALID,1005.4,VALID,0,VALID,76.1896,VALID,189.963,VALID,28.8115,VALID,137,VALID,1.78906,
2008-07-20, 09:28:04,VALID,1005.41,VALID,0,VALID,77.9366,VALID,188.053,VALID,28.4194,VALID,142,VALID,1.18242,
2008-07-20, 09:29:04,VALID,1005.42,VALID,0,VALID,80.3779,VALID,197.103,VALID,28.3631,VALID,136,VALID,1.28359,
2008-07-20, 09:30:04,VALID,1005.42,VALID,0,VALID,79.0276,VALID,217.317,VALID,28.205,VALID,152,VALID,1.41797,
2008-07-20, 09:31:04,VALID,1005.44,VALID,0,VALID,79.5387,VALID,246.983,VALID,28.0686,VALID,124,VALID,1.57227,
2008-07-20, 09:32:04,VALID,1005.4,VALID,0,VALID,80.3321,VALID,266.693,VALID,28.0296,VALID,151,VALID,1.30977,
2008-07-20, 09:33:04,VALID,1005.4,VALID,0,VALID,79.2717,VALID,289.621,VALID,28.0296,VALID,148,VALID,1.87891,
2008-07-20, 09:34:04,VALID,1005.38,VALID,0,VALID,81.4764,VALID,364.038,VALID,28.0296,VALID,143,VALID,1.54023,
2008-07-20, 09:35:04,VALID,1005.4,VALID,0,VALID,81.4078,VALID,401.95,VALID,28.1271,VALID,158,VALID,1.11797,
2008-07-20, 09:36:04,VALID,1005.37,VALID,0,VALID,79.4777,VALID,618.563,VALID,28.1249,VALID,133,VALID,1.15313,
2008-07-20, 09:37:04,VALID,1005.35,VALID,0,VALID,78.9894,VALID,729.584,VALID,28.283,VALID,166,VALID,1.08945,
2008-07-20, 09:38:04,VALID,1005.35,VALID,0,VALID,79.615,VALID,872.585,VALID,28.4974,VALID,170,VALID,1.30195,
2008-07-20, 09:39:04,VALID,1005.35,VALID,0,VALID,78.0206,VALID,842.818,VALID,28.6512,VALID,134,VALID,1.87031,
2008-07-20, 09:40:04,VALID,1005.35,VALID,0,VALID,79.6608,VALID,843.019,VALID,28.8505,VALID,150,VALID,1.96406,
2008-07-20, 09:41:04,VALID,1005.3,VALID,0,VALID,74.6562,VALID,876.708,VALID,28.9285,VALID,90,VALID,1.8332,
2008-07-20, 09:42:04,VALID,1005.32,VALID,0,VALID,75.6632,VALID,851.165,VALID,28.987,VALID,93,VALID,1.4,
2008-07-20, 09:43:04,VALID,1005.29,VALID,0,VALID,77.2958,VALID,828.94,VALID,29.2383,VALID,127,VALID,1.26406,
2008-07-20, 09:44:04,VALID,1005.25,VALID,0,VALID,72.8863,VALID,839.399,VALID,29.2383,VALID,120,VALID,2.32031,
2008-07-20, 09:45:04,VALID,1005.26,VALID,0,VALID,73.4432,VALID,776.748,VALID,29.2015,VALID,108,VALID,2.50625,
2008-07-20, 09:46:04,VALID,1005.23,VALID,0,VALID,74.1375,VALID,824.013,VALID,29.2405,VALID,81,VALID,1.23867,
2008-07-20, 09:47:04,VALID,1005.2,VALID,0,VALID,74.3282,VALID,828.538,VALID,29.221,VALID,93,VALID,2.12734,
2008-07-20, 09:48:04,VALID,1005.19,VALID,0,VALID,71.4597,VALID,837.991,VALID,29.2383,VALID,122,VALID,1.84375,
2008-07-20, 09:49:04,VALID,1005.15,VALID,0,VALID,71.4826,VALID,863.936,VALID,29.1018,VALID,113,VALID,1.90859,
2008-07-20, 09:50:04,VALID,1005.14,VALID,0,VALID,73.4051,VALID,637.569,VALID,29.143,VALID,93,VALID,1.30938,
2008-07-20, 09:51:04,VALID,1005.18,VALID,0,VALID,72.009,VALID,830.75,VALID,29.1213,VALID,98,VALID,1.70195,
2008-07-20, 09:52:04,VALID,1005.15,VALID,0,VALID,74.29,VALID,700.521,VALID,29.182,VALID,44,VALID,1.50469,
2008-07-20, 09:53:04,VALID,1005.14,VALID,0,VALID,74.5418,VALID,204.746,VALID,29.3163,VALID,115,VALID,0.344141,
2008-07-20, 09:54:04,VALID,1005.17,VALID,0,VALID,74.1832,VALID,192.679,VALID,29.5135,VALID,109,VALID,0.235547,
2008-07-20, 09:55:04,VALID,1005.19,VALID,0,VALID,72.5964,VALID,196.701,VALID,29.5308,VALID,58,VALID,1.44297,
2008-07-20, 09:56:04,VALID,1005.18,VALID,0,VALID,73.0465,VALID,215.708,VALID,29.431,VALID,73,VALID,0.801172,
2008-07-20, 09:57:04,VALID,1005.17,VALID,0,VALID,73.5043,VALID,269.509,VALID,29.2188,VALID,139,VALID,0.919141,
2008-07-20, 09:58:04,VALID,1005.17,VALID,0,VALID,73.0618,VALID,934.029,VALID,29.1213,VALID,127,VALID,1.8418,
2008-07-20, 09:59:04,VALID,1005.16,VALID,0,VALID,74.0993,VALID,937.146,VALID,29.1018,VALID,126,VALID,1.05586,
2008-07-20, 10:00:04,VALID,1005.13,VALID,0,VALID,73.7484,VALID,879.322,VALID,29.314,VALID,79,VALID,0.804688,
2008-07-20, 10:01:04,VALID,1005.08,VALID,0,VALID,72.4515,VALID,416.129,VALID,29.5113,VALID,60,VALID,0.695703,
2008-07-20, 10:02:04,VALID,1005.05,VALID,0,VALID,70.9257,VALID,265.486,VALID,29.665,VALID,358,VALID,0.363281,
2008-07-20, 10:03:04,VALID,1005.06,VALID,0,VALID,71.5665,VALID,223.652,VALID,29.5698,VALID,127,VALID,1.54766,
2008-07-20, 10:04:04,VALID,1005.03,VALID,0,VALID,72.5812,VALID,245.776,VALID,29.3748,VALID,165,VALID,1.95195,
2008-07-20, 10:05:04,VALID,1005.03,VALID,0,VALID,75.1368,VALID,591.21,VALID,29.2188,VALID,86,VALID,1.50039,
2008-07-20, 10:06:04,VALID,1005,VALID,0,VALID,73.817,VALID,978.075,VALID,29.0996,VALID,77,VALID,1.41758,
2008-07-20, 10:07:04,VALID,1005.01,VALID,0,VALID,74.0917,VALID,934.23,VALID,29.1386,VALID,95,VALID,1.47578,
2008-07-20, 10:08:04,VALID,1004.96,VALID,0,VALID,74.2672,VALID,912.508,VALID,29.2188,VALID,102,VALID,2.52617,
2008-07-20, 10:09:04,VALID,1004.94,VALID,0,VALID,73.7179,VALID,908.586,VALID,29.2383,VALID,109,VALID,1.49102,
2008-07-20, 10:10:04,VALID,1004.91,VALID,0,VALID,70.941,VALID,952.733,VALID,29.377,VALID,156,VALID,1.91719,
2008-07-20, 10:11:04,VALID,1004.92,VALID,0,VALID,70.1704,VALID,476.668,VALID,29.455,VALID,160,VALID,1.70117,
2008-07-20, 10:12:04,VALID,1004.93,VALID,0,VALID,70.6053,VALID,1013.67,VALID,29.3575,VALID,143,VALID,2.10586,
2008-07-20, 10:13:04,VALID,1004.93,VALID,0,VALID,70.796,VALID,763.675,VALID,29.3597,VALID,125,VALID,0.600391,
2008-07-20, 10:14:04,VALID,1004.95,VALID,0,VALID,71.5131,VALID,709.874,VALID,29.3575,VALID,142,VALID,1.56562,
2008-07-20, 10:15:04,VALID,1004.89,VALID,0,VALID,71.5208,VALID,440.868,VALID,29.455,VALID,27,VALID,0.538672,